FW6647 Weather Reports


time (UTC)temp
F
wind
direction
speed
knots
gust
knots
rain 1hr
in
rain 24hr
in
rain mn
in
humidity
%
barometer
mb
20260510071536 49 58 0.0 2.6 0.00 0.41 0.01 90 1010.9
20260510070028 50 8 0.9 3.5 0.00 0.41 0.01 92 1011.3
20260510064546 51 345 0.0 0.0 0.00 0.41 0.01 92 1011.0
20260510063022 52 359 0.9 3.5 0.00 0.41 0.01 92 1010.6
20260510061530 52 328 1.7 4.3 0.01 0.41 0.01 92 1010.0
20260510060028 52 319 0.9 4.3 0.01 0.41 0.01 93 1010.6
20260510054514 53 341 0.0 3.5 0.01 0.42 0.01 93 1010.0
20260510053013 53 317 0.0 1.7 0.01 0.42 0.01 93 1009.4
20260510051512 54 249 0.0 5.2 0.00 0.41 0.00 94 1009.4
20260510050010 53 243 0.9 4.3 0.00 0.41 0.00 95 1009.9
20260510044508 53 258 0.0 1.7 0.00 0.41 0.00 95 1009.2
20260510043003 52 212 0.9 5.2 0.00 0.41 0.00 94 1008.5
20260510041611 52 189 0.9 4.3 0.00 0.41 0.00 94 1008.1
20260510040059 53 179 0.0 1.7 0.00 0.41 0.00 94 1007.9
20260510034604 53 359 1.7 3.5 0.00 0.41 0.41 94 1007.8
20260510033058 53 359 0.0 4.3 0.00 0.41 0.41 94 1007.8
20260510031607 53 198 0.9 5.2 0.00 0.41 0.41 94 1007.8
20260510030103 53 199 1.7 4.3 0.00 0.41 0.41 94 1007.8
20260510024556 53 210 1.7 7.0 0.00 0.41 0.41 94 1007.9
20260510023054 53 207 0.9 5.2 0.00 0.41 0.41 94 1008.0
20260510021554 53 207 0.9 3.5 0.00 0.41 0.41 94 1007.8
20260510020053 53 211 1.7 7.8 0.00 0.41 0.41 94 1007.7
20260510014553 54 185 2.6 7.8 0.00 0.41 0.41 94 1007.6
20260510013055 53 201 3.5 8.7 0.00 0.41 0.41 94 1007.5
20260510011552 53 359 1.7 7.8 0.00 0.41 0.41 94 1007.2
20260510010052 53 186 2.6 7.8 0.00 0.41 0.41 94 1007.0
20260510004551 53 197 0.9 7.0 0.01 0.41 0.41 94 1007.0
20260510003057 53 233 1.7 7.8 0.06 0.41 0.41 93 1006.9
20260510001551 54 359 1.7 7.0 0.15 0.41 0.41 93 1006.8
20260510000052 53 272 0.9 6.1 0.22 0.41 0.41 93 1006.5
20260509234602 53 189 1.7 7.8 0.37 0.40 0.40 92 1006.7
20260509233055 53 228 0.0 4.3 0.33 0.34 0.34 91 1007.6
20260509231605 53 359 1.7 7.0 0.25 0.26 0.26 90 1007.6
20260509230050 54 359 4.3 13.9 0.18 0.19 0.19 85 1007.3
20260509224545 59 359 6.1 23.5 0.02 0.03 0.03 70 1007.6
20260509223045 66 118 1.7 6.1 0.00 0.01 0.01 59 1004.9
20260509221544 66 201 1.7 6.1 0.00 0.01 0.01 56 1004.5
20260509220043 67 255 0.9 8.7 0.00 0.01 0.01 55 1004.1
20260509214543 67 224 3.5 10.4 0.00 0.01 0.01 54 1004.0
20260509213046 68 245 6.1 19.1 0.00 0.01 0.01 52 1003.8
20260509211549 69 272 7.0 19.1 0.00 0.01 0.01 53 1004.0
20260509210052 69 237 4.3 11.3 0.00 0.01 0.01 53 1004.3
20260509204539 70 161 3.5 10.4 0.00 0.01 0.01 53 1004.2
20260509203042 69 243 2.6 10.4 0.00 0.01 0.01 56 1004.5
20260509201538 68 207 3.5 11.3 0.00 0.01 0.01 57 1004.8
20260509200034 68 218 2.6 10.4 0.00 0.01 0.01 58 1005.1
20260509194531 69 196 2.6 12.2 0.00 0.01 0.01 55 1005.3
20260509193031 69 188 1.7 13.9 0.00 0.01 0.01 57 1005.2
20260509191529 69 258 3.5 10.4 0.00 0.01 0.01 55 1005.4
20260509190031 68 181 3.5 11.3 0.00 0.01 0.01 58 1005.6
20260509184529 67 88 1.7 10.4 0.00 0.01 0.01 63 1005.9
20260509183028 64 247 2.6 7.8 0.00 0.01 0.01 71 1006.1
20260509181519 63 238 0.0 2.6 0.00 0.01 0.01 73 1006.3
20260509180018 61 359 0.0 4.3 0.00 0.01 0.01 77 1006.3
20260509174517 62 359 1.7 8.7 0.00 0.01 0.01 74 1006.7
20260509173017 66 198 3.5 9.6 0.00 0.01 0.01 65 1006.8
20260509171520 65 228 2.6 8.7 0.00 0.01 0.01 69 1006.5
20260509170006 64 193 0.9 10.4 0.00 0.01 0.01 72 1006.9
20260509164503 62 192 2.6 7.0 0.00 0.01 0.01 74 1007.2
20260509163001 63 243 1.7 6.1 0.00 0.01 0.01 74 1007.4
20260509161559 63 214 1.7 6.1 0.00 0.01 0.01 75 1007.5
20260509160056 61 219 0.0 5.2 0.00 0.01 0.01 77 1007.6
20260509154606 61 227 0.9 7.8 0.00 0.01 0.01 78 1007.7
20260509153050 60 242 1.7 12.2 0.00 0.01 0.01 81 1007.7
20260509151550 59 214 3.5 9.6 0.00 0.01 0.01 80 1007.8
20260509150103 59 198 2.6 9.6 0.00 0.01 0.01 79 1007.8
20260509144547 58 239 3.5 7.0 0.00 0.01 0.01 85 1007.8
20260509143047 57 227 0.9 8.7 0.00 0.01 0.01 83 1008.0
20260509141539 57 212 1.7 5.2 0.00 0.01 0.01 85 1007.9
20260509140038 56 219 1.7 6.1 0.00 0.01 0.01 86 1007.9
20260509134534 56 181 2.6 5.2 0.00 0.02 0.01 86 1008.0
20260509133031 56 193 0.9 7.0 0.00 0.02 0.01 88 1007.9
20260509131529 55 253 1.7 5.2 0.00 0.02 0.01 89 1008.1
20260509130025 55 214 2.6 6.1 0.00 0.02 0.01 89 1008.1
20260509124532 54 243 0.9 4.3 0.00 0.06 0.01 91 1008.3
20260509123020 54 177 1.7 6.1 0.00 0.06 0.01 91 1008.4
20260509121526 53 359 1.7 5.2 0.00 0.06 0.01 91 1008.6
20260509120017 53 359 2.6 5.2 0.00 0.06 0.01 92 1008.7
20260509114533 53 359 0.0 5.2 0.00 0.10 0.01 92 1008.6
20260509113013 52 359 0.9 4.3 0.00 0.10 0.01 92 1008.6
20260509111509 52 359 0.9 5.2 0.00 0.10 0.01 92 1008.5
20260509110006 51 359 0.9 5.2 0.00 0.10 0.01 92 1008.5
20260509104504 51 359 1.7 4.3 0.00 0.10 0.01 92 1008.5
20260509103002 51 359 1.7 7.0 0.00 0.10 0.01 92 1008.5
20260509101600 51 359 0.0 3.5 0.00 0.10 0.01 92 1008.6
20260509100059 51 359 0.0 3.5 0.00 0.10 0.01 91 1008.6
20260509094601 51 359 2.6 5.2 0.00 0.10 0.01 91 1008.7
20260509093056 52 359 0.9 4.3 0.00 0.10 0.01 91 1008.8
20260509091559 52 359 0.9 3.5 0.00 0.10 0.01 91 1008.8
20260509090106 52 359 0.9 7.8 0.00 0.10 0.01 91 1008.9
20260509084553 52 359 0.9 2.6 0.00 0.10 0.01 91 1009.0
20260509083056 52 359 0.0 4.3 0.00 0.10 0.01 91 1009.0
20260509081552 52 359 0.0 3.5 0.00 0.10 0.01 91 1009.0
20260509080107 52 359 0.9 7.0 0.00 0.10 0.01 91 1008.9
20260509074552 52 359 0.0 5.2 0.00 0.10 0.01 91 1009.1
20260509073055 52 359 1.7 5.2 0.00 0.10 0.01 91 1009.2